Notices

What's New in latest Release from April 7th, 2021:

- Updated Glossary, including Speed of Maximum Gust, and Total Hourly Precipitation

- Updated national and regional climate services offices contacts and prices information

- Addition of station inventory lists for 1981-2010, 1971-2000, and 1961-1990 Normals.

If you haven't already, please take our survey and provide feedback about our website: https://eccc.sondage-survey.ca/f/LanguageSelection.aspx?s=442ca660-fcf1-47c0-95a9-59707d6fd709

Hourly Data Report for March 18, 2006

TORONTO CITY
ONTARIO

43°40'00.000" N
79°24'00.000" W
112.50 m
6158355
71508
XTO

Download Data

Hourly Data (March 2006)
Hourly Data Report for March 18, 2006
TIME
LST
Temp Definition
°C
Dew Point Definition
°C
Rel Hum Definition
%
Precip. Amount Definition
mm

Wind Dir Definition
10's deg

Wind Spd Definition
km/h
Visibility Definition
km
Stn Press Definition
kPa
Hmdx Definition


Wind Chill Definition


Weather Definition


00:00 -3.7 -10.4 60   LegendMM LegendMM   100.75     LegendNANA
01:00 -3.5 -10.2 60   LegendMM LegendMM   100.69     LegendNANA
02:00 -3.5 -9.7 62   LegendMM LegendMM   100.67     LegendNANA
03:00 -3.7 -9.6 64   LegendMM LegendMM   100.63     LegendNANA
04:00 -4.1 -10.0 63   LegendMM LegendMM   100.65     LegendNANA
05:00 -4.4 -13.0 51   LegendMM LegendMM   100.65     LegendNANA
06:00 -4.9 -12.5 55   LegendMM LegendMM   100.64     LegendNANA
07:00 -5.6 -12.3 59   LegendMM LegendMM   100.67     LegendNANA
08:00 -5.7 -9.8 73   LegendMM LegendMM   100.70     LegendNANA
09:00 -5.1 -10.4 66   LegendMM LegendMM   100.69     LegendNANA
10:00 -4.2 -11.9 55   LegendMM LegendMM   100.67     LegendNANA
11:00 -3.5 -12.0 52   LegendMM LegendMM   100.67     LegendNANA
12:00 -1.9 -12.1 46   LegendMM LegendMM   100.62     LegendNANA
13:00 -0.4 -13.1 38   LegendMM LegendMM   100.55     LegendNANA
14:00 0.0 -12.9 37   LegendMM LegendMM   100.46     LegendNANA
15:00 -0.3 -12.2 40   LegendMM LegendMM   100.44     LegendNANA
16:00 -0.5 -12.2 41   LegendMM LegendMM   100.44     LegendNANA
17:00 -1.5 -10.8 49   LegendMM LegendMM   100.46     LegendNANA
18:00 -2.2 -9.5 57   LegendMM LegendMM   100.45     LegendNANA
19:00 -2.8 -10.0 58   LegendMM LegendMM   100.47     LegendNANA
20:00 -2.6 -9.3 60   LegendMM LegendMM   100.44     LegendNANA
21:00 -2.3 -8.1 64   LegendMM LegendMM   100.42     LegendNANA
22:00 -1.9 -7.3 67   LegendMM LegendMM   100.39     LegendNANA
23:00 -1.4 -6.8 67   LegendMM LegendMM   100.37     LegendNANA

Notes on Data Quality.

Legend

  • E = Estimated
  • M = Missing
  • NA = Not Available*
  • [empty] = Indicates an unobserved value
Date modified: